CW3065 Weather Reports


time (UTC)temp
C
wind
direction
speed
KPH
gust
KPH
rain 1hr
cm
rain 24hr
cm
rain mn
cm
humidity
%
barometer
mb
20260503221004 15 241 4.8 29.0 0.00 0.00 0.00 18 1004.2
20260503220004 16 242 12.9 19.3 0.00 0.00 0.00 17 1004.2
20260503215504 16 261 4.8 9.7 0.00 0.00 0.00 17 1004.2
20260503215003 16 284 3.2 11.3 0.00 0.00 0.00 17 1004.2
20260503214504 16 335 14.5 22.5 0.00 0.00 0.00 18 1004.3
20260503214004 16 275 9.7 19.3 0.00 0.00 0.00 19 1004.3
20260503212504 17 294 8.0 35.4 0.00 0.00 0.00 16 1004.6
20260503212004 17 310 11.3 32.2 0.00 0.00 0.00 17 1004.5
20260503211504 17 321 14.5 29.0 0.00 0.00 0.00 17 1004.7
20260503211003 17 300 11.3 29.0 0.00 0.00 0.00 16 1004.7
20260503210504 18 289 6.4 24.1 0.00 0.00 0.00 16 1004.6
20260503210005 18 258 8.0 24.1 0.00 0.00 0.00 16 1004.8
20260503205503 18 331 20.9 35.4 0.00 0.00 0.00 18 1004.8
20260503204504 16 236 16.1 29.0 0.00 0.00 0.00 16 1005.0
20260503203503 17 259 19.3 38.6 0.00 0.00 0.00 16 1005.0
20260503203004 17 245 16.1 27.4 0.00 0.00 0.00 15 1005.2
20260503202504 17 240 16.1 25.7 0.00 0.00 0.00 16 1005.6
20260503202004 18 244 19.3 41.8 0.00 0.00 0.00 14 1005.5
20260503201503 18 248 11.3 37.0 0.00 0.00 0.00 14 1005.4
20260503201004 17 344 11.3 32.2 0.00 0.00 0.00 15 1005.7
20260503200504 17 271 20.9 41.8 0.00 0.00 0.00 15 1005.7
20260503200004 17 271 16.1 37.0 0.00 0.00 0.00 15 1005.8
20260503195004 17 263 16.1 32.2 0.00 0.00 0.00 16 1005.8
20260503194504 17 273 17.7 35.4 0.00 0.00 0.00 16 1006.1
20260503194004 17 275 22.5 41.8 0.00 0.00 0.00 15 1006.2
20260503193504 17 270 19.3 33.8 0.00 0.00 0.00 15 1006.1
20260503193004 17 278 20.9 38.6 0.00 0.00 0.00 15 1006.2
20260503192003 17 296 22.5 33.8 0.00 0.00 0.00 16 1006.2
20260503191504 16 273 19.3 25.7 0.00 0.00 0.00 18 1006.3
20260503191004 16 232 27.4 45.1 0.00 0.00 0.00 16 1006.2
20260503190504 17 244 12.9 27.4 0.00 0.00 0.00 17 1006.3
20260503190004 16 300 12.9 27.4 0.00 0.00 0.00 18 1006.3
20260503185504 16 293 19.3 32.2 0.00 0.00 0.00 17 1006.5
20260503185004 16 277 24.1 38.6 0.00 0.00 0.00 17 1006.8
20260503184004 16 265 17.7 37.0 0.00 0.00 0.00 18 1006.8
20260503183503 15 267 17.7 27.4 0.00 0.00 0.00 18 1007.0
20260503183004 15 252 14.5 37.0 0.00 0.00 0.00 17 1007.1
20260503182504 15 282 20.9 38.6 0.00 0.00 0.00 18 1007.5
20260503181504 15 260 20.9 37.0 0.00 0.00 0.00 19 1007.5
20260503181004 14 253 14.5 22.5 0.00 0.00 0.00 19 1007.5
20260503180004 13 269 11.3 25.7 0.00 0.00 0.00 19 1007.6
20260503175504 13 262 12.9 24.1 0.00 0.00 0.00 20 1007.7
20260503175004 13 265 9.7 22.5 0.00 0.00 0.00 21 1007.7
20260503174503 13 254 12.9 24.1 0.00 0.00 0.00 21 1007.7
20260503174004 13 311 4.8 16.1 0.00 0.00 0.00 23 1007.9
20260503173503 13 253 8.0 16.1 0.00 0.00 0.00 24 1008.0
20260503173003 13 238 8.0 19.3 0.00 0.00 0.00 24 1008.1
20260503151004 13 236 9.7 22.5 0.00 0.00 0.00 22 1008.8
20260503150504 13 256 8.0 20.9 0.00 0.00 0.00 21 1008.9
20260503130503 0 348 1.6 3.2 0.00 0.00 0.00 69 1010.5
20260503110504 -1 348 0.0 0.0 0.00 0.00 0.00 69 1010.0
20260503090504 0 348 0.0 1.6 0.00 0.00 0.00 63 1011.0
20260503081504 0 348 0.0 3.2 0.00 0.00 0.00 60 1011.2
20260503081004 0 348 1.6 4.8 0.00 0.00 0.00 60 1011.2
20260503072003 1 348 1.6 3.2 0.00 0.00 0.00 58 1011.9
20260503071503 1 348 3.2 4.8 0.00 0.00 0.00 58 1011.9
20260503071004 1 348 4.8 4.8 0.00 0.00 0.00 57 1012.0
20260503070504 2 49 0.0 1.6 0.00 0.00 0.00 57 1012.0
20260503055004 2 280 0.0 0.0 0.00 0.00 0.00 52 1012.7
20260503054503 2 280 0.0 4.8 0.00 0.00 0.00 53 1012.6
20260503054004 2 280 1.6 4.8 0.00 0.00 0.00 52 1012.7
20260503053504 2 280 4.8 4.8 0.00 0.00 0.00 51 1012.6
20260503053004 2 280 3.2 4.8 0.00 0.00 0.00 52 1012.5
20260503052504 2 280 3.2 4.8 0.00 0.00 0.00 51 1012.4
20260503052004 2 280 1.6 3.2 0.00 0.00 0.00 51 1012.3
20260503051503 2 280 1.6 4.8 0.00 0.00 0.00 50 1012.2
20260503051004 2 280 1.6 4.8 0.00 0.00 0.00 51 1012.2
20260503050504 3 280 1.6 4.8 0.00 0.00 0.00 51 1012.1
20260503050005 3 280 4.8 4.8 0.00 0.00 0.00 50 1012.1
20260503045504 3 280 0.0 3.2 0.00 0.00 0.00 50 1012.3
20260503045004 3 280 3.2 4.8 0.00 0.00 0.00 48 1012.8
20260503044504 3 280 3.2 4.8 0.00 0.00 0.00 48 1012.9
20260503044003 4 280 0.0 3.2 0.00 0.00 0.00 46 1012.9
20260503043503 4 280 3.2 4.8 0.00 0.00 0.00 46 1012.9
20260503043003 5 280 1.6 3.2 0.00 0.00 0.00 46 1012.8
20260503042503 5 280 1.6 4.8 0.00 0.00 0.00 46 1012.6
20260503042003 5 280 1.6 4.8 0.00 0.00 0.00 44 1012.4
20260503041503 5 280 1.6 4.8 0.00 0.00 0.00 44 1012.3
20260503041004 5 280 3.2 4.8 0.00 0.00 0.00 43 1012.4
20260503040504 5 280 1.6 4.8 0.00 0.00 0.00 43 1012.4
20260503040004 6 280 3.2 4.8 0.00 0.00 0.00 42 1012.4
20260503035503 6 280 4.8 8.0 0.00 0.00 0.00 41 1012.5
20260503035004 6 280 4.8 4.8 0.00 0.00 0.00 41 1012.8
20260503034503 6 280 0.0 4.8 0.00 0.00 0.00 40 1012.9
20260503034004 6 280 4.8 4.8 0.00 0.00 0.00 39 1012.8
20260503033504 6 280 4.8 4.8 0.00 0.00 0.00 38 1012.8
20260503032504 7 280 1.6 3.2 0.00 0.00 0.00 37 1012.8
20260503031504 8 280 0.0 3.2 0.00 0.00 0.00 36 1012.5
20260503031004 8 280 3.2 4.8 0.00 0.00 0.00 35 1012.4
20260503030504 8 280 3.2 4.8 0.00 0.00 0.00 34 1012.3
20260503030004 9 280 3.2 4.8 0.00 0.00 0.00 31 1012.1
20260503025504 9 280 3.2 4.8 0.00 0.00 0.00 31 1012.2
20260503025004 9 278 4.8 9.7 0.00 0.00 0.00 31 1012.5
20260503024003 9 291 3.2 4.8 0.00 0.00 0.00 32 1012.3
20260503023504 10 291 0.0 4.8 0.00 0.00 0.00 31 1012.3
20260503023003 10 285 3.2 8.0 0.00 0.00 0.00 32 1012.3
20260503022503 10 273 4.8 9.7 0.00 0.00 0.00 32 1012.2
20260503022004 10 283 4.8 8.0 0.00 0.00 0.00 32 1012.2
20260503021504 10 245 3.2 4.8 0.00 0.00 0.00 32 1012.1
20260503021003 11 119 4.8 8.0 0.00 0.00 0.00 32 1011.9
20260503020503 11 119 3.2 4.8 0.00 0.00 0.00 31 1011.8
20260503020004 11 119 3.2 4.8 0.00 0.00 0.00 30 1011.7
20260503015504 11 119 1.6 4.8 0.00 0.00 0.00 31 1011.6
20260503015004 11 119 4.8 4.8 0.00 0.00 0.00 29 1011.6
20260503014504 11 183 3.2 9.7 0.00 0.00 0.00 29 1011.6
20260503014004 12 206 9.7 20.9 0.00 0.00 0.00 28 1011.8
20260503013004 12 178 17.7 20.9 0.00 0.00 0.00 27 1012.0
20260503012503 12 176 4.8 8.0 0.00 0.00 0.00 28 1012.0
20260503012004 12 259 4.8 12.9 0.00 0.00 0.00 27 1012.1
20260503011504 12 269 8.0 20.9 0.00 0.00 0.00 26 1012.2
20260503011004 12 262 8.0 16.1 0.00 0.00 0.00 26 1012.2
20260503010504 12 251 8.0 12.9 0.00 0.00 0.00 26 1012.3
20260503010004 12 215 8.0 11.3 0.00 0.00 0.00 21 1012.4
20260503005004 12 154 4.8 9.7 0.00 0.00 0.00 21 1012.1
20260503004004 12 113 8.0 14.5 0.00 0.00 0.00 19 1011.8
20260503003504 12 102 8.0 11.3 0.00 0.00 0.00 20 1011.9
20260503003004 12 130 8.0 19.3 0.00 0.00 0.00 19 1011.9
20260503002504 13 126 11.3 19.3 0.00 0.00 0.00 19 1011.9
20260503002003 13 119 11.3 19.3 0.00 0.00 0.00 19 1011.9
20260503001504 13 117 8.0 16.1 0.00 0.00 0.00 19 1011.9
20260503001004 13 126 11.3 19.3 0.00 0.00 0.00 20 1011.9
20260503000504 13 112 11.3 19.3 0.00 0.00 0.00 19 1011.9
20260503000003 13 69 8.0 16.1 0.00 0.00 0.00 19 1011.9
20260502235504 13 103 9.7 22.5 0.00 0.00 0.00 19 1011.9
20260502235003 13 112 11.3 22.5 0.00 0.00 0.00 19 1011.8
20260502234504 13 109 14.5 19.3 0.00 0.00 0.00 19 1011.8
20260502234003 13 78 6.4 16.1 0.00 0.00 0.00 19 1011.8
20260502233503 13 56 9.7 22.5 0.00 0.00 0.00 20 1011.8
20260502233003 14 55 14.5 22.5 0.00 0.00 0.00 18 1011.8
20260502231504 14 78 11.3 20.9 0.00 0.00 0.00 19 1011.7
20260502230504 14 52 11.3 19.3 0.00 0.00 0.00 20 1011.7
20260502230004 14 75 11.3 19.3 0.00 0.00 0.00 19 1011.7
20260502225503 15 72 16.1 24.1 0.00 0.00 0.00 18 1011.8
20260502225004 15 93 11.3 22.5 0.00 0.00 0.00 19 1011.7
20260502224504 15 71 12.9 24.1 0.00 0.00 0.00 18 1011.8
20260502224003 15 73 20.9 29.0 0.00 0.00 0.00 19 1011.9
20260502223503 15 57 16.1 24.1 0.00 0.00 0.00 20 1012.3
20260502223004 14 33 11.3 25.7 0.00 0.00 0.00 21 1012.3
20260502222503 14 74 12.9 22.5 0.00 0.00 0.00 20 1012.3
20260502222003 14 108 8.0 12.9 0.00 0.00 0.00 20 1012.4